MEASAT-3B

Last updated on Tue Sep 16 2025 00:02:48 GMT+0000 (Coordinated Universal Time)

1 40147U 14054B 25258.64335779 -.00000259 00000+0 00000+0 0 9991 2 40147 0.0409 34.8716 0001159 87.2821 195.8094 1.00273169 40159
UTC large
Height (km)
Speed (km/s)
/
Latitude / Longitude
Inclination (degrees)
Orbital Period (minutes)
Azimuth
Elevation
Range (km)
Doppler Factor

Next 0 passes for location: London (51.5072 / 0.1276)

Sorry there are no passes over London.